Time,TemperatureF,DewpointF,PressureIn,WindDirection,WindDirectionDegrees,WindSpeedMPH,WindSpeedGustMPH,Humidity,HourlyPrecipIn,Conditions,Clouds,dailyrainin,SolarRadiationWatts/m^2,SoftwareType,DateUTC
2013-05-15 00:02:00,69.0,28.0,25.12,WSW,242,22.0,28.0,21,-99.99,,,-99.99,0.000000,,2013-05-15 06:02:00,
2013-05-15 00:11:00,69.0,28.0,25.13,WSW,246,23.0,28.0,21,-99.99,,,-99.99,0.000000,,2013-05-15 06:11:00,
2013-05-15 00:21:00,69.0,28.0,25.13,WSW,246,23.0,28.0,21,-99.99,,,-99.99,0.000000,,2013-05-15 06:21:00,
2013-05-15 00:32:00,68.0,28.0,25.11,WSW,251,23.0,28.0,22,-99.99,,,-99.99,0.000000,,2013-05-15 06:32:00,
2013-05-15 00:42:00,68.0,28.0,25.11,WSW,256,23.0,27.0,22,-99.99,,,-99.99,0.000000,,2013-05-15 06:42:00,
2013-05-15 00:52:00,68.0,28.0,25.11,WSW,256,23.0,27.0,22,-99.99,,,-99.99,0.000000,,2013-05-15 06:52:00,
2013-05-15 01:01:00,67.0,28.0,25.08,WSW,256,21.0,27.0,23,-99.99,,,-99.99,0.000000,,2013-05-15 07:01:00,
2013-05-15 01:11:00,66.0,28.0,25.05,WSW,258,17.0,22.0,24,-99.99,,,-99.99,0.000000,,2013-05-15 07:11:00,
2013-05-15 01:22:00,66.0,28.0,25.05,WSW,258,17.0,22.0,24,-99.99,,,-99.99,0.000000,,2013-05-15 07:22:00,
2013-05-15 01:32:00,65.0,28.0,25.10,West,259,15.0,20.0,24,-99.99,,,-99.99,0.000000,,2013-05-15 07:32:00,
2013-05-15 01:41:00,65.0,29.0,25.13,West,265,14.0,19.0,25,-99.99,,,-99.99,0.000000,,2013-05-15 07:41:00,
2013-05-15 01:52:00,65.0,29.0,25.13,West,265,14.0,19.0,25,-99.99,,,-99.99,0.000000,,2013-05-15 07:52:00,
2013-05-15 02:02:00,64.0,29.0,25.12,West,269,12.0,17.0,25,-99.99,,,-99.99,0.000000,,2013-05-15 08:02:00,
2013-05-15 02:12:00,65.0,29.0,25.08,West,279,13.0,21.0,25,-99.99,,,-99.99,0.000000,,2013-05-15 08:12:00,
2013-05-15 02:21:00,65.0,29.0,25.08,West,279,13.0,21.0,25,-99.99,,,-99.99,0.000000,,2013-05-15 08:21:00,
2013-05-15 02:32:00,64.0,29.0,25.08,West,279,11.0,15.0,25,-99.99,,,-99.99,0.000000,,2013-05-15 08:32:00,
2013-05-15 02:42:00,64.0,29.0,25.07,West,278,10.0,13.0,26,-99.99,,,-99.99,0.000000,,2013-05-15 08:42:00,
2013-05-15 02:53:00,64.0,29.0,25.07,West,278,10.0,13.0,26,-99.99,,,-99.99,0.000000,,2013-05-15 08:53:00,
2013-05-15 03:01:00,64.0,29.0,25.10,West,272,10.0,12.0,26,-99.99,,,-99.99,0.000000,,2013-05-15 09:01:00,
2013-05-15 03:11:00,64.0,29.0,25.07,West,275,10.0,12.0,26,-99.99,,,-99.99,0.000000,,2013-05-15 09:11:00,
2013-05-15 03:21:00,64.0,29.0,25.07,West,275,10.0,12.0,26,-99.99,,,-99.99,0.000000,,2013-05-15 09:21:00,
2013-05-15 03:33:00,64.0,29.0,25.04,West,273,9.0,11.0,26,-99.99,,,-99.99,0.000000,,2013-05-15 09:33:00,
2013-05-15 03:42:00,64.0,29.0,25.03,West,273,8.0,10.0,27,-99.99,,,-99.99,0.000000,,2013-05-15 09:42:00,
2013-05-15 03:53:00,64.0,29.0,25.03,West,273,8.0,10.0,27,-99.99,,,-99.99,0.000000,,2013-05-15 09:53:00,
2013-05-15 04:02:00,64.0,30.0,25.04,West,267,10.0,14.0,27,-99.99,,,-99.99,0.000000,,2013-05-15 10:02:00,
2013-05-15 04:12:00,64.0,30.0,25.03,WSW,247,10.0,12.0,27,-99.99,,,-99.99,0.000000,,2013-05-15 10:12:00,
2013-05-15 04:22:00,64.0,30.0,25.03,WSW,247,10.0,12.0,27,-99.99,,,-99.99,0.000000,,2013-05-15 10:22:00,
2013-05-15 04:32:00,64.0,30.0,25.09,WSW,240,8.0,11.0,27,-99.99,,,-99.99,0.000000,,2013-05-15 10:32:00,
2013-05-15 04:42:00,64.0,30.0,25.04,West,269,12.0,16.0,27,-99.99,,,-99.99,0.000000,,2013-05-15 10:42:00,
2013-05-15 04:52:00,64.0,30.0,25.04,West,269,12.0,16.0,27,-99.99,,,-99.99,0.000000,,2013-05-15 10:52:00,
2013-05-15 05:09:00,63.0,30.0,25.01,West,267,10.0,13.0,28,-99.99,,,-99.99,0.000000,,2013-05-15 11:09:00,
2013-05-15 05:17:00,64.0,30.0,25.00,West,278,12.0,20.0,27,-99.99,,,-99.99,0.000000,,2013-05-15 11:17:00,
2013-05-15 05:26:00,64.0,30.0,25.00,West,278,12.0,20.0,27,-99.99,,,-99.99,0.000000,,2013-05-15 11:26:00,
2013-05-15 05:47:00,60.0,29.0,25.00,West,270,16.0,21.0,31,-99.99,,,-99.99,0.000000,,2013-05-15 11:47:00,
2013-05-15 05:59:00,60.0,29.0,25.00,West,270,16.0,21.0,31,-99.99,,,-99.99,0.000000,,2013-05-15 11:59:00,
2013-05-15 06:07:00,61.0,30.0,24.95,West,274,18.0,25.0,30,-99.99,,,-99.99,0.000000,,2013-05-15 12:07:00,
2013-05-15 06:14:00,61.0,30.0,24.96,West,279,21.0,26.0,30,-99.99,,,-99.99,0.000000,,2013-05-15 12:14:00,
2013-05-15 06:47:00,60.0,29.0,24.94,West,278,25.0,28.0,31,-99.99,,,-99.99,10.460000,,2013-05-15 12:47:00,
2013-05-15 06:57:00,60.0,29.0,24.94,West,278,25.0,28.0,31,-99.99,,,-99.99,10.460000,,2013-05-15 12:57:00,
2013-05-15 07:08:00,60.0,30.0,24.95,West,280,24.0,29.0,31,-99.99,,,-99.99,61.369999,,2013-05-15 13:08:00,
2013-05-15 07:17:00,61.0,30.0,24.93,WNW,282,24.0,28.0,30,-99.99,,,-99.99,103.209999,,2013-05-15 13:17:00,
2013-05-15 07:26:00,61.0,30.0,24.93,WNW,282,24.0,28.0,30,-99.99,,,-99.99,103.209999,,2013-05-15 13:26:00,
2013-05-15 07:46:00,62.0,30.0,25.01,West,276,15.0,23.0,30,-99.99,,,-99.99,54.389999,,2013-05-15 13:46:00,
2013-05-15 07:58:00,62.0,30.0,25.01,West,276,15.0,23.0,30,-99.99,,,-99.99,54.389999,,2013-05-15 13:58:00,
2013-05-15 08:05:00,62.0,31.0,25.07,West,280,15.0,24.0,30,-99.99,,,-99.99,27.889999,,2013-05-15 14:05:00,
2013-05-15 08:14:00,66.0,31.0,25.00,WNW,289,16.0,28.0,27,-99.99,,,-99.99,38.349998,,2013-05-15 14:14:00,
2013-05-15 08:26:00,66.0,31.0,25.00,WNW,289,16.0,28.0,27,-99.99,,,-99.99,38.349998,,2013-05-15 14:26:00,
2013-05-15 08:36:00,66.0,31.0,25.05,WNW,284,14.0,22.0,27,-99.99,,,-99.99,33.470001,,2013-05-15 14:36:00,
2013-05-15 08:46:00,65.0,31.0,25.04,West,277,9.0,12.0,28,-99.99,,,-99.99,74.610001,,2013-05-15 14:46:00,
2013-05-15 08:59:00,65.0,31.0,25.04,West,277,9.0,12.0,28,-99.99,,,-99.99,74.610001,,2013-05-15 14:59:00,
2013-05-15 09:08:00,66.0,31.0,25.05,West,270,9.0,13.0,26,-99.99,,,-99.99,115.059998,,2013-05-15 15:08:00,
2013-05-15 09:15:00,67.0,31.0,25.05,West,266,14.0,18.0,26,-99.99,,,-99.99,136.679993,,2013-05-15 15:15:00,
2013-05-15 09:27:00,67.0,31.0,25.05,West,266,14.0,18.0,26,-99.99,,,-99.99,136.679993,,2013-05-15 15:27:00,
2013-05-15 09:36:00,66.0,31.0,25.13,West,262,12.0,14.0,26,-99.99,,,-99.99,218.960007,,2013-05-15 15:36:00,
2013-05-15 09:47:00,67.0,31.0,25.17,West,263,13.0,17.0,26,-99.99,,,-99.99,192.460007,,2013-05-15 15:47:00,
2013-05-15 10:01:00,67.0,31.0,25.17,West,263,13.0,17.0,26,-99.99,,,-99.99,192.460007,,2013-05-15 16:01:00,
2013-05-15 10:09:00,67.0,31.0,25.13,WSW,247,21.0,26.0,26,-99.99,,,-99.99,264.290009,,2013-05-15 16:09:00,
2013-05-15 10:21:00,67.0,31.0,25.06,WSW,248,23.0,27.0,26,-99.99,,,-99.99,602.500000,,2013-05-15 16:21:00,
2013-05-15 10:27:00,67.0,31.0,25.06,WSW,248,23.0,27.0,26,-99.99,,,-99.99,602.500000,,2013-05-15 16:27:00,
2013-05-15 10:30:00,69.0,31.0,-100.00,WSW,247,25.0,33.0,24,-99.99,,,-99.99,824.950012,,2013-05-15 16:30:00,
2013-05-15 10:47:00,68.0,32.0,25.03,WSW,243,25.0,37.0,25,-99.99,,,-99.99,704.309998,,2013-05-15 16:47:00,
2013-05-15 10:59:00,68.0,32.0,25.03,WSW,243,25.0,37.0,25,-99.99,,,-99.99,704.309998,,2013-05-15 16:59:00,
2013-05-15 11:27:00,69.0,31.0,-100.00,WSW,247,25.0,33.0,24,-99.99,,,-99.99,824.950012,,2013-05-15 17:27:00,
2013-05-15 11:49:00,71.0,30.0,25.03,SW,236,23.0,35.0,21,-99.99,,,-99.99,825.640015,,2013-05-15 17:49:00,
2013-05-15 11:59:00,71.0,30.0,25.03,SW,236,23.0,35.0,21,-99.99,,,-99.99,825.640015,,2013-05-15 17:59:00,
2013-05-15 12:15:00,73.0,29.0,25.02,WSW,238,26.0,41.0,19,-99.99,,,-99.99,951.159973,,2013-05-15 18:15:00,
2013-05-15 12:26:00,73.0,29.0,25.02,WSW,238,26.0,41.0,19,-99.99,,,-99.99,951.159973,,2013-05-15 18:26:00,
2013-05-15 12:36:00,74.0,28.0,24.96,WSW,256,28.0,48.0,18,-99.99,,,-99.99,942.789978,,2013-05-15 18:36:00,
2013-05-15 12:46:00,76.0,28.0,25.02,West,262,28.0,39.0,17,-99.99,,,-99.99,1038.329956,,2013-05-15 18:46:00,
2013-05-15 12:57:00,76.0,28.0,25.02,West,262,28.0,39.0,17,-99.99,,,-99.99,1038.329956,,2013-05-15 18:57:00,
2013-05-15 13:15:00,78.0,27.0,27.82,West,278,30.0,42.0,15,-99.99,,,-99.99,1105.969971,,2013-05-15 19:15:00,
2013-05-15 13:30:00,78.0,27.0,27.82,West,278,30.0,42.0,15,-99.99,,,-99.99,1105.969971,,2013-05-15 19:30:00,
2013-05-15 13:37:00,78.0,27.0,27.55,West,274,34.0,43.0,14,-99.99,,,-99.99,889.099976,,2013-05-15 19:37:00,
2013-05-15 13:45:00,78.0,27.0,27.13,West,272,32.0,45.0,15,-99.99,,,-99.99,588.549988,,2013-05-15 19:45:00,
2013-05-15 13:57:00,78.0,27.0,27.13,West,272,32.0,45.0,15,-99.99,,,-99.99,588.549988,,2013-05-15 19:57:00,
2013-05-15 14:07:00,78.0,27.0,-100.00,West,272,32.0,45.0,15,-99.99,,,-99.99,588.549988,,2013-05-15 20:07:00,
2013-05-15 14:17:00,79.0,27.0,26.25,West,269,30.0,38.0,14,-99.99,,,-99.99,652.010010,,2013-05-15 20:17:00,
2013-05-15 14:28:00,79.0,27.0,26.25,West,269,30.0,38.0,14,-99.99,,,-99.99,652.010010,,2013-05-15 20:28:00,
2013-05-15 14:37:00,78.0,26.0,26.08,WNW,285,23.0,35.0,14,-99.99,,,-99.99,419.790009,,2013-05-15 20:37:00,
2013-05-15 14:46:00,80.0,27.0,25.91,West,277,22.0,34.0,14,-99.99,,,-99.99,887.010010,,2013-05-15 20:46:00,
2013-05-15 15:07:00,81.0,27.0,28.11,West,275,25.0,36.0,13,-99.99,,,-99.99,947.679993,,2013-05-15 21:07:00,
2013-05-15 15:19:00,83.0,27.0,29.86,West,279,28.0,44.0,12,-99.99,,,-99.99,947.679993,,2013-05-15 21:19:00,
2013-05-15 15:39:00,82.0,27.0,29.80,West,277,20.0,33.0,13,-99.99,,,-99.99,652.700012,,2013-05-15 21:39:00,
2013-05-15 15:49:00,82.0,27.0,29.77,WNW,288,21.0,35.0,12,-99.99,,,-99.99,526.489990,,2013-05-15 21:49:00,
2013-05-15 16:00:00,82.0,27.0,29.77,WNW,288,21.0,35.0,12,-99.99,,,-99.99,526.489990,,2013-05-15 22:00:00,
2013-05-15 16:08:00,82.0,27.0,29.74,West,264,24.0,43.0,13,-99.99,,,-99.99,678.510010,,2013-05-15 22:08:00,
2013-05-15 16:17:00,82.0,26.0,29.70,West,274,26.0,39.0,13,-99.99,,,-99.99,554.380005,,2013-05-15 22:17:00,
2013-05-15 16:28:00,82.0,26.0,29.70,West,274,26.0,39.0,13,-99.99,,,-99.99,554.380005,,2013-05-15 22:28:00,
2013-05-15 16:38:00,83.0,27.0,29.67,West,273,24.0,37.0,12,-99.99,,,-99.99,668.049988,,2013-05-15 22:38:00,
2013-05-15 16:47:00,83.0,27.0,29.66,West,276,28.0,37.0,12,-99.99,,,-99.99,552.289978,,2013-05-15 22:47:00,
2013-05-15 16:59:00,83.0,27.0,29.66,West,276,28.0,37.0,12,-99.99,,,-99.99,552.289978,,2013-05-15 22:59:00,
2013-05-15 17:07:00,83.0,26.0,29.65,West,279,27.0,36.0,12,-99.99,,,-99.99,442.109985,,2013-05-15 23:07:00,
2013-05-15 17:15:00,82.0,26.0,29.63,West,268,32.0,42.0,13,-99.99,,,-99.99,317.290009,,2013-05-15 23:15:00,
2013-05-15 17:27:00,82.0,26.0,29.63,West,268,32.0,42.0,13,-99.99,,,-99.99,317.290009,,2013-05-15 23:27:00,
2013-05-15 17:38:00,83.0,26.0,29.63,West,272,33.0,42.0,12,-99.99,,,-99.99,267.779999,,2013-05-15 23:38:00,
2013-05-15 18:00:00,82.0,26.0,29.62,West,269,33.0,46.0,12,-99.99,,,-99.99,241.279999,,2013-05-16 00:00:00,
2013-05-15 18:05:00,81.0,26.0,29.61,West,265,39.0,51.0,13,-99.99,,,-99.99,105.989998,,2013-05-16 00:05:00,
2013-05-15 18:16:00,80.0,26.0,29.61,West,266,35.0,48.0,13,-99.99,,,-99.99,168.059998,,2013-05-16 00:16:00,
2013-05-15 18:25:00,80.0,26.0,29.61,West,266,35.0,48.0,13,-99.99,,,-99.99,168.059998,,2013-05-16 00:25:00,
2013-05-15 18:35:00,81.0,26.0,29.60,West,261,36.0,45.0,13,-99.99,,,-99.99,325.649994,,2013-05-16 00:35:00,
2013-05-15 18:48:00,80.0,25.0,29.59,West,267,37.0,47.0,13,-99.99,,,-99.99,126.220001,,2013-05-16 00:48:00,
2013-05-15 18:58:00,80.0,25.0,29.59,West,267,37.0,47.0,13,-99.99,,,-99.99,126.220001,,2013-05-16 00:58:00,
2013-05-15 19:06:00,80.0,25.0,29.59,West,268,37.0,44.0,13,-99.99,,,-99.99,145.050003,,2013-05-16 01:06:00,
2013-05-15 19:28:00,81.0,25.0,29.58,West,265,38.0,47.0,12,-99.99,,,-99.99,111.570000,,2013-05-16 01:28:00,
2013-05-15 19:35:00,80.0,25.0,29.57,West,263,39.0,54.0,12,-99.99,,,-99.99,67.639999,,2013-05-16 01:35:00,
2013-05-15 19:48:00,80.0,24.0,29.56,West,263,42.0,53.0,12,-99.99,,,-99.99,109.480003,,2013-05-16 01:48:00,
2013-05-15 20:00:00,80.0,24.0,29.56,West,263,42.0,53.0,12,-99.99,,,-99.99,109.480003,,2013-05-16 02:00:00,
2013-05-15 20:07:00,79.0,24.0,29.56,West,263,44.0,53.0,13,-99.99,,,-99.99,47.419998,,2013-05-16 02:07:00,
2013-05-15 20:16:00,78.0,24.0,26.79,West,259,45.0,56.0,13,-99.99,,,-99.99,22.309999,,2013-05-16 02:16:00,
2013-05-15 20:27:00,78.0,24.0,26.79,West,259,45.0,56.0,13,-99.99,,,-99.99,22.309999,,2013-05-16 02:27:00,
2013-05-15 20:46:00,77.0,23.0,25.06,West,262,42.0,54.0,13,-99.99,,,-99.99,8.370000,,2013-05-16 02:46:00,
2013-05-15 20:55:00,77.0,23.0,25.06,West,262,42.0,54.0,13,-99.99,,,-99.99,8.370000,,2013-05-16 02:55:00,
2013-05-15 21:07:00,76.0,23.0,24.88,West,262,37.0,44.0,13,-99.99,,,-99.99,1.390000,,2013-05-16 03:07:00,
2013-05-15 21:16:00,75.0,23.0,24.51,West,264,32.0,39.0,14,-99.99,,,-99.99,0.000000,,2013-05-16 03:16:00,
2013-05-15 21:25:00,75.0,23.0,24.51,West,264,32.0,39.0,14,-99.99,,,-99.99,0.000000,,2013-05-16 03:25:00,
2013-05-15 21:36:00,74.0,23.0,24.43,West,264,31.0,38.0,14,-99.99,,,-99.99,0.000000,,2013-05-16 03:36:00,
2013-05-15 21:45:00,74.0,23.0,24.61,West,264,30.0,37.0,14,-99.99,,,-99.99,0.000000,,2013-05-16 03:45:00,
2013-05-15 21:56:00,74.0,23.0,24.61,West,264,30.0,37.0,14,-99.99,,,-99.99,0.000000,,2013-05-16 03:56:00,
2013-05-15 22:02:00,73.0,23.0,24.56,West,260,30.0,37.0,15,-99.99,,,-99.99,0.000000,,2013-05-16 04:02:00,
2013-05-15 22:12:00,73.0,23.0,24.59,West,262,31.0,38.0,15,-99.99,,,-99.99,0.000000,,2013-05-16 04:12:00,
2013-05-15 22:23:00,73.0,23.0,24.59,West,262,31.0,38.0,15,-99.99,,,-99.99,0.000000,,2013-05-16 04:23:00,
2013-05-15 22:33:00,73.0,23.0,24.56,West,262,31.0,37.0,14,-99.99,,,-99.99,0.000000,,2013-05-16 04:33:00,
2013-05-15 22:42:00,73.0,22.0,24.54,West,262,31.0,37.0,14,-99.99,,,-99.99,0.000000,,2013-05-16 04:42:00,
2013-05-15 22:53:00,73.0,22.0,24.54,West,262,31.0,37.0,14,-99.99,,,-99.99,0.000000,,2013-05-16 04:53:00,
2013-05-15 23:02:00,73.0,22.0,24.52,West,263,30.0,37.0,14,-99.99,,,-99.99,0.000000,,2013-05-16 05:02:00,
2013-05-15 23:12:00,73.0,22.0,24.53,West,263,28.0,35.0,14,-99.99,,,-99.99,0.000000,,2013-05-16 05:12:00,
2013-05-15 23:22:00,73.0,22.0,24.53,West,263,28.0,35.0,14,-99.99,,,-99.99,0.000000,,2013-05-16 05:22:00,
2013-05-15 23:32:00,72.0,22.0,24.62,West,263,29.0,35.0,14,-99.99,,,-99.99,0.000000,,2013-05-16 05:32:00,
2013-05-15 23:42:00,72.0,22.0,24.62,West,261,29.0,37.0,14,-99.99,,,-99.99,0.000000,,2013-05-16 05:42:00,
2013-05-15 23:52:00,72.0,22.0,24.62,West,261,29.0,37.0,14,-99.99,,,-99.99,0.000000,,2013-05-16 05:52:00,